Location: Pl�tzky
(52.0521°N, 11.8020°E)
Time: 13:39:30
(UTC+00:00)

USA 229 - Pass Details

Date: 01 March 2020
Orbit: 986 x 1226 km, 63.4° (Epoch: 26 March)

Event Time Altitude Azimuth Distance (km) Brightness Sun altitude
Rises 18:46:13 0° 272° (W) 3,780 8.2 -18.1°
Reaches altitude 10° 18:49:03 10° 281° (WNW) 2,860 7.2 -18.5°
Maximum altitude 18:55:13 36° 347° (NNW) 1,666 4.9 -19.4°
Enters shadow 19:01:15 12° 50° (NE) 2,875 5.6 -20.3°
